User: anonymous   Login
Location: Beuvrequen
(50.8014°N, 1.6652°E)
Time: 00:46:46
(UTC+00:00)
Language:

Lacrosse 4 Rocket - Orbit

View from above orbital plane
View from above orbital plane
View from above satellite
View from above satellite

Ground track
Ground track

The orbit data is extracted from the following two-line orbital elements,

1 26474U 00047B   22026.82461659  .00000437  00000-0  48005-4 0  9992
2 26474  67.9924 255.7250 0060884 270.4057  89.0109 14.96395797167336
Epoch (UTC): 26 January 2022 19:47:26
Eccentricity: 0.0060884
inclination: 67.9924°
perigee height: 535 km
apogee height: 620 km
right ascension of ascending node: 255.7250°
argument of perigee: 270.4057°
revolutions per day: 14.96395797
mean anomaly at epoch: 89.0109°
orbit number at epoch: 16733

The dashed part of the orbit path shows where the satellite is in the earth's shadow,  

DLR